Location: Aranbee
(34.0885°N, 118.2342°W)
Time: 13:54:15
(UTC+00:00)

Tiros 1 - Pass Details

Date: 28 November 2020
Orbit: 630 x 663 km, 48.4° (Epoch: 21 January)

Event Time Altitude Azimuth Distance (km) Brightness Sun altitude
Rises 22:49:36 0° 239° (WSW) 2,982 12.1 18.6°
Reaches altitude 10° 22:51:58 10° 242° (WSW) 2,072 11.6 18.3°
Maximum altitude 22:56:44 65° 324° (NW) 725 7.7 17.5°
Drops below altitude 10° 23:01:30 10° 47° (NE) 2,074 9.2 16.8°
Sets 23:03:52 0° 50° (NE) 2,985 9.9 16.4°
